Regional Weather Roundup
Issued by NWS

Home | Current Version | Previous Version | Text Only | Print | Product List | Glossary On
Versions: 1 2 3 4 5 6 7 8 9 10 11 12 13 14 15 16 17 18 19 20 21 22 23 24 25 26 27 28 29 30 31 32 33 34 35 36 37 38 39 40 41 42 43 44 45 46 47 48 49 50
000
ASUS44 KFWD 210815
RWRTX
NORTH TEXAS HOURLY WEATHER ROUNDUP
NATIONAL WEATHER SERVICE FORT WORTH TX
300 AM CDT SUN SEP 21 2014

NOTE: "FAIR" INDICATES FEW OR NO CLOUDS BELOW 12,000 FEET WITH NO
SIGNIFICANT WEATHER AND/OR OBSTRUCTIONS TO VISIBILITY.

TXZ118-119-210900-
DALLAS/FORT WORTH METROPLEX

CITY           SKY/WX    TMP DP  RH WIND       PRES   REMARKS
DFW AIRPORT    CLEAR     76  63  64 CALM      30.01F
DALLAS LOVE    CLEAR     76  64  66 S5        30.01F
FTW MEACHAM    CLEAR     74  63  68 CALM      30.02S
DAL-EXECUTIVE  CLEAR     75  64  68 CALM      30.02S
FTW-ALLIANCE   CLEAR     66  61  84 CALM      30.02S
FTW-NAS-JRB    CLEAR     77  62  59 CALM      30.06S
FTW-SPINKS       N/A     66  62  86 CALM      30.04S
ARLINGTON      CLEAR     68  63  84 CALM      30.02S
GRAND PRAIRIE  CLEAR     74  62  65 CALM      30.03F
ADDISON        CLEAR     78  62  59 CALM      30.04S
MESQUITE       CLEAR     69  64  83 CALM      30.02F
LANCASTER      CLEAR     67  62  83 CALM      30.03S
$$

TXZ091>094-102>105-117-120-121-131>134-210900-
NORTH CENTRAL TEXAS

CITY           SKY/WX    TMP DP  RH WIND       PRES   REMARKS
SHRMAN/DENISON CLEAR     74  63  67 SE5       30.05S
GAINESVILLE    CLEAR     70  63  78 CALM      30.06S
BOWIE          CLEAR     67  64  87 CALM      30.05R
BRIDGEPORT     CLEAR     67  62  83 CALM      30.05F
DECATUR        CLEAR     76  62  61 S7        30.04F
DENTON         CLEAR     67  60  78 CALM      30.02F
MCKINNEY       CLEAR     70  62  76 CALM      30.02F
GREENVILLE     CLEAR     68  63  83 CALM      30.03S
ROCKWALL       CLEAR     70  65  83 CALM      30.02S
TERRELL        CLEAR     71  66  84 CALM      30.02F
WAXAHACHIE     CLEAR     69  61  76 CALM      30.03F
CLEBURNE       CLEAR     73  66  78 CALM      30.05S
GRANBURY       CLEAR     71  66  84 CALM      30.05S
$$

TXZ083>090-098>101-113>116-127>130-139>142-154-155-210900-
WESTERN NORTH TEXAS

CITY           SKY/WX    TMP DP  RH WIND       PRES   REMARKS
WICHITA FALLS  CLEAR     74  67  78 CALM      30.03S
WF-KICKAPOO    CLEAR     72  67  85 SE5       30.04S
VERNON         CLEAR     74  68  81 S3        30.05F
ABILENE        CLOUDY    73  70  90 SE3       30.06F
ABILENE-DYESS  CLOUDY    73  64  75 SE5       30.05F
BRECKENRIDGE   CLEAR     74  70  85 CALM      30.04F
GRAHAM         CLEAR     70  64  82 CALM      30.03S
MINERAL WELLS  CLEAR     70  62  76 CALM      30.03R
STEPHENVILLE   CLEAR     72  65  78 CALM      30.07S
COMANCHE       CLEAR     71  70  96 CALM      30.05S
BROWNWOOD      CLOUDY    73  72  94 CALM      30.05S
COLEMAN        CLOUDY    73  69  87 CALM      30.06F
BRADY          CLOUDY    72  72 100 CALM      30.05S
$$

TXZ143>147-156>162-174-175-210900-
CENTRAL TEXAS

CITY           SKY/WX    TMP DP  RH WIND       PRES   REMARKS
WACO           CLEAR     70  67  90 NE5       30.01R
WACO-MCGREGOR  CLEAR     70  63  78 CALM      30.02S
HILLSBORO      CLEAR     74  64  72 CALM      30.02S
CORSICANA      CLEAR     71  65  81 NE3       30.03R
MEXIA          CLEAR     70  67  89 CALM      30.01R
HEARNE         CLEAR     71  69  91 CALM      30.00S
CAMERON        CLEAR     72  70  93 CALM      30.00S
TEMPLE         CLEAR     72  64  78 CALM      30.01S
KILLEEN        PTCLDY    73  68  83 SE3       30.02S
KILLEEN-SKYLRK MOCLDY    72  64  78 SE3       30.02S
FORT HOOD      PTCLDY    75  69  81 SE3       30.02S
GATESVILLE     CLEAR     72  68  88 CALM      30.04F
HAMILTON       CLEAR     72  65  81 SE7       30.05S
LAMPASAS       CLEAR     71  69  92 CALM      30.03R
$$

TXZ095>097-106>112-122>126-135>138-148>153-164>167-210900-
EAST TEXAS

CITY           SKY/WX    TMP DP  RH WIND       PRES   REMARKS
PARIS          CLEAR     72  63  73 CALM      30.03F
SULPHUR SPRNGS CLEAR     71  66  85 CALM      30.04F
MOUNT PLEASANT CLEAR     68  68  98 CALM      30.03F
GILMER         CLEAR     70  68  94 CALM      30.03F
MINEOLA        CLEAR     70  68  94 CALM      30.03S
TYLER          CLEAR     72  66  81 CALM      30.02S
LONGVIEW       CLEAR     71  67  87 CALM      30.01S
MARSHALL       CLEAR     71  67  88 CALM      30.03F
ATHENS         CLEAR     64  64 100 CALM      30.01S
PALESTINE      CLEAR     68  67  95 CALM      30.03R
JACKSONVILLE   CLEAR     74  66  74 CALM      30.04S
HENDERSON      CLEAR     67  67 100 CALM      30.03S
NACOGDOCHES    CLEAR     66  63  88 CALM      30.01F
LUFKIN         CLEAR     71  66  84 CALM      30.00S
$$

SUPPLEMENTAL OBSERVATIONS (CENTRAL)

CITY           SKY/WX    TMP DP  RH WIND       PRES   REMARKS
LAKE TEXOMA      N/A     70  66  88 E1          N/A
PAT MAYSE LAKE   N/A     73  70  88 SE1         N/A
GREENVILLE       N/A     70  66  88 W1          N/A
CEDAR HILL       N/A     70  63  78 CALM        N/A
PALESTINE        N/A     66  64  94 CALM        N/A
LAKE LIMESTONE   N/A     70  66  88 CALM        N/A
MCGREGOR         N/A     72  66  83 CALM        N/A
TEMPLE           N/A     73  68  83 NE3         N/A
$$

SUPPLEMENTAL OBSERVATIONS (WEST)

CITY           SKY/WX    TMP DP  RH WIND       PRES   REMARKS
MILLERS CREEK    N/A     73  66  78 S2          N/A
POSSUM KINGDOM   N/A     73  66  78 E5          N/A
GRANBURY         N/A     70  66  88 S1          N/A
COMANCHE         N/A     72  68  88 S3          N/A
HAMBY            N/A     72  68  88 SE2         N/A
$$

SUPPLEMENTAL OBSERVATIONS (EAST)

CITY           SKY/WX    TMP DP  RH WIND       PRES   REMARKS
TEXARKANA        N/A     66  64  94 CALM        N/A
LINDEN           N/A     70  66  88 CALM        N/A
CADDO LAKE       N/A     64  63  94 CALM        N/A
HENDERSON        N/A     68  64  88 N1          N/A
LUFKIN           N/A     68  64  88 MISG        N/A
$$

SUPPLEMENTAL OBSERVATIONS ARE A COLLECTION OF AUTOMATED INSTRUMENTS
THAT ARE MAINTAINED BY A VARIETY OF FEDERAL AND STATE AGENCIES.
CERTAIN ELEMENTS...SUCH AS HUMIDITY VALUES AND SUSTAINED WIND
SPEEDS...MAY BE APPROXIMATED.



USA.gov is the U.S. government's official web portal to all federal, state and local government web resources and services.